This demonstration page uses our WeatherBlox Daily Observations layout. Learn more.

Left ArrowRight Arrow

Hourly Observations for July 3, 2016

Temp ( °F °C ) Dew Point ( °F °C ) Humidity (%) Winds ( mph kmh ) Pressure ( in mb ) Visibility ( mi km ) Precip ( " mm )
12:53 am 00:53 Mostly Cloudy 66 18.9 59 15 78 78 ENE 3 6 30.10 1019 8 13 N/A
1:53 am 01:53 Mostly Clear 64 17.8 60 15.6 87 87 N N/A 30.10 1019 10 16 N/A
2:53 am 02:53 Mostly Clear 64 17.8 58 14.4 81 81 N N/A 30.10 1019 10 16 N/A
3:53 am 03:53 Clear 61 16.1 58 14.4 90 90 N N/A 30.09 1019 10 16 N/A
4:53 am 04:53 Clear 62 16.7 59 15 90 90 N N/A 30.09 1019 10 16 N/A
5:53 am 05:53 Clear 65 18.3 58 14.4 78 78 ENE 5 7 30.08 1019 10 16 N/A
6:53 am 06:53 Mostly Cloudy with Light Rain 64 17.8 59 15 84 84 E 3 6 30.09 1019 10 16 N/A
7:53 am 07:53 Cloudy with Light Rain 65 18.3 60 15.6 84 84 NE 3 6 30.11 1020 8 13 0.01 0.25
8:53 am 08:53 Cloudy with Rain 64 17.8 62 16.7 93 93 N N/A 30.13 1020 3 5 0.03 0.76
9:00 am 09:00 Cloudy with Rain 65 18.3 62 16.7 90 90 N N/A 30.12 1020 2 3 0.01 0.25
9:08 am 09:08 Cloudy with Rain 64 17.8 62 16.7 93 93 N N/A 30.12 1020 2 3 0.03 0.76
9:13 am 09:13 Cloudy with Rain 65 18.3 62 16.7 90 90 N N/A 30.12 1020 3 5 0.04 1.02
9:53 am 09:53 Cloudy with Heavy Rain 64 17.8 62 16.7 93 93 N N/A 30.14 1021 2 3 0.12 3.05
10:05 am 10:05 Cloudy with Light Rain 65 18.3 62 16.7 90 90 N N/A 30.12 1020 4 6 N/A
10:53 am 10:53 Cloudy with Light Rain 65 18.3 62 16.7 90 90 E 6 9 30.13 1020 5 8 0.03 0.76
11:53 am 11:53 Cloudy with Light Rain 66 18.9 62 16.7 87 87 E 6 9 30.13 1020 6 10 0.03 0.76
12:53 pm 12:53 Cloudy with Light Rain 66 18.9 62 16.7 87 87 E 8 13 30.11 1020 10 16 0.03 0.76
1:05 pm 13:05 Cloudy with Light Rain 66 18.9 61 16.1 84 84 E 12 19 30.09 1019 10 16 N/A
1:53 pm 13:53 Cloudy with Light Rain 65 18.3 60 15.6 84 84 E 8 13 30.11 1020 10 16 N/A
2:53 pm 14:53 Cloudy with Light Rain 64 17.8 61 16.1 90 90 ESE 7 11 30.11 1020 6 10 0.05 1.27
3:46 pm 15:46 Cloudy with Light Rain 65 18.3 61 16.1 87 87 E 9 15 30.09 1019 10 16 0.02 0.51
3:53 pm 15:53 Mostly Cloudy 65 18.3 61 16.1 87 87 E 8 13 30.10 1019 10 16 0.02 0.51
4:28 pm 16:28 Cloudy 65 18.3 61 16.1 87 87 E 7 11 30.09 1019 10 16 N/A
4:43 pm 16:43 Cloudy 66 18.9 62 16.7 87 87 E 10 17 30.09 1019 10 16 N/A
4:53 pm 16:53 Cloudy 66 18.9 61 16.1 84 84 E 10 17 30.09 1019 10 16 N/A
5:53 pm 17:53 Cloudy 66 18.9 60 15.6 81 81 E 10 17 30.07 1018 10 16 N/A
6:53 pm 18:53 Cloudy 65 18.3 59 15 81 81 E 10 17 30.04 1017 10 16 N/A
7:53 pm 19:53 Cloudy 65 18.3 60 15.6 84 84 E 8 13 30.04 1017 10 16 N/A
8:53 pm 20:53 Cloudy 65 18.3 61 16.1 87 87 ESE 3 6 30.05 1018 10 16 N/A
9:53 pm 21:53 Cloudy with Light Rain 64 17.8 61 16.1 90 90 ESE 3 6 30.03 1017 10 16 0.01 0.25
10:53 pm 22:53 Mostly Cloudy with Light Rain 64 17.8 61 16.1 90 90 E 5 7 30.02 1017 8 13 N/A
11:50 pm 23:50 Mostly Cloudy with Light Rain 64 18 61 16 88 88 ENE 6 9 30.03 1017 8 13 0.03 0.76
11:53 pm 23:53 Mostly Cloudy with Light Rain 64 17.8 61 16.1 90 90 ENE 5 7 30.01 1016 8 13 0.03 0.76

Powered by AerisWeather